owner,sensor,date,latitude,longitude,vertical_datum,sea_water_practical_salinity,qcFlag 
NERRS,ioos:station:NOAA.NERRS:rkblhwq:1,2019-09-01T00:45:00Z,26.0257,-81.7332,1.03,24.7,11111222 
NERRS,ioos:station:NOAA.NERRS:rkblhwq:1,2019-09-01T01:45:00Z,26.0257,-81.7332,0.9,25.6,11111222 
NERRS,ioos:station:NOAA.NERRS:rkblhwq:1,2019-09-01T02:45:00Z,26.0257,-81.7332,0.86,24.3,11111222 
NERRS,ioos:station:NOAA.NERRS:rkblhwq:1,2019-09-01T03:45:00Z,26.0257,-81.7332,0.99,24.9,11111222 
NERRS,ioos:station:NOAA.NERRS:rkblhwq:1,2019-09-01T04:45:00Z,26.0257,-81.7332,1.17,25.8,11111222 
NERRS,ioos:station:NOAA.NERRS:rkblhwq:1,2019-09-01T05:45:00Z,26.0257,-81.7332,1.36,27.2,11111222 
NERRS,ioos:station:NOAA.NERRS:rkblhwq:1,2019-09-01T06:45:00Z,26.0257,-81.7332,1.51,27.8,11111222 
NERRS,ioos:station:NOAA.NERRS:rkblhwq:1,2019-09-01T07:45:00Z,26.0257,-81.7332,1.61,28.2,11111222 
NERRS,ioos:station:NOAA.NERRS:rkblhwq:1,2019-09-01T08:45:00Z,26.0257,-81.7332,1.6,27.4,11111222 
NERRS,ioos:station:NOAA.NERRS:rkblhwq:1,2019-09-01T09:45:00Z,26.0257,-81.7332,1.49,28.0,11111222 
NERRS,ioos:station:NOAA.NERRS:rkblhwq:1,2019-09-01T10:45:00Z,26.0257,-81.7332,1.35,27.5,11111222 
NERRS,ioos:station:NOAA.NERRS:rkblhwq:1,2019-09-01T11:45:00Z,26.0257,-81.7332,1.2,27.3,11111222 
NERRS,ioos:station:NOAA.NERRS:rkblhwq:1,2019-09-01T12:45:00Z,26.0257,-81.7332,1.06,26.6,11111222 
NERRS,ioos:station:NOAA.NERRS:rkblhwq:1,2019-09-01T13:45:00Z,26.0257,-81.7332,0.97,26.2,11111222 
NERRS,ioos:station:NOAA.NERRS:rkblhwq:1,2019-09-01T14:45:00Z,26.0257,-81.7332,1.02,24.0,11111222 
NERRS,ioos:station:NOAA.NERRS:rkblhwq:1,2019-09-01T15:45:00Z,26.0257,-81.7332,1.18,25.2,11111222 
NERRS,ioos:station:NOAA.NERRS:rkblhwq:1,2019-09-01T16:45:00Z,26.0257,-81.7332,1.36,26.7,11111222 
NERRS,ioos:station:NOAA.NERRS:rkblhwq:1,2019-09-01T17:45:00Z,26.0257,-81.7332,1.52,27.6,11111222 
NERRS,ioos:station:NOAA.NERRS:rkblhwq:1,2019-09-04T16:45:00Z,26.0257,-81.7332,0.89,20.9,11111222 
NERRS,ioos:station:NOAA.NERRS:rkblhwq:1,2019-09-04T17:45:00Z,26.0257,-81.7332,0.93,20.7,11111222 
NERRS,ioos:station:NOAA.NERRS:rkblhwq:1,2019-09-04T18:45:00Z,26.0257,-81.7332,1.05,21.4,11111222 
NERRS,ioos:station:NOAA.NERRS:rkblhwq:1,2019-09-04T19:45:00Z,26.0257,-81.7332,1.18,22.8,11111222 
NERRS,ioos:station:NOAA.NERRS:rkblhwq:1,2019-09-04T20:45:00Z,26.0257,-81.7332,1.29,24.7,11111222 
NERRS,ioos:station:NOAA.NERRS:rkblhwq:1,2019-09-04T21:45:00Z,26.0257,-81.7332,1.38,25.6,11111222 
NERRS,ioos:station:NOAA.NERRS:rkblhwq:1,2019-09-04T22:45:00Z,26.0257,-81.7332,1.43,26.2,11111222 
NERRS,ioos:station:NOAA.NERRS:rkblhwq:1,2019-09-04T23:45:00Z,26.0257,-81.7332,1.45,26.0,11111222 
NERRS,ioos:station:NOAA.NERRS:rkblhwq:1,2019-09-05T00:45:00Z,26.0257,-81.7332,1.39,23.9,11111222 
NERRS,ioos:station:NOAA.NERRS:rkblhwq:1,2019-09-05T01:45:00Z,26.0257,-81.7332,1.29,23.3,11111222 
NERRS,ioos:station:NOAA.NERRS:rkblhwq:1,2019-09-05T02:45:00Z,26.0257,-81.7332,1.19,22.8,11111222 
NERRS,ioos:station:NOAA.NERRS:rkblhwq:1,2019-09-05T03:45:00Z,26.0257,-81.7332,1.11,23.2,11111222 
NERRS,ioos:station:NOAA.NERRS:rkblhwq:1,2019-09-05T05:45:00Z,26.0257,-81.7332,1.21,22.1,11111222 
NERRS,ioos:station:NOAA.NERRS:rkblhwq:1,2019-09-05T06:45:00Z,26.0257,-81.7332,1.33,23.5,11111222 
NERRS,ioos:station:NOAA.NERRS:rkblhwq:1,2019-09-05T07:45:00Z,26.0257,-81.7332,1.42,25.9,11111222 
NERRS,ioos:station:NOAA.NERRS:rkblhwq:1,2019-09-05T08:45:00Z,26.0257,-81.7332,1.52,25.9,11111222 
NERRS,ioos:station:NOAA.NERRS:rkblhwq:1,2019-09-05T09:45:00Z,26.0257,-81.7332,1.58,26.5,11111222 
NERRS,ioos:station:NOAA.NERRS:rkblhwq:1,2019-09-05T10:45:00Z,26.0257,-81.7332,1.61,26.5,11111222 
NERRS,ioos:station:NOAA.NERRS:rkblhwq:1,2019-09-05T11:45:00Z,26.0257,-81.7332,1.56,25.9,11111222 
NERRS,ioos:station:NOAA.NERRS:rkblhwq:1,2019-09-05T12:45:00Z,26.0257,-81.7332,1.46,26.7,11111222 
NERRS,ioos:station:NOAA.NERRS:rkblhwq:1,2019-09-05T13:45:00Z,26.0257,-81.7332,1.34,24.8,11111222 
NERRS,ioos:station:NOAA.NERRS:rkblhwq:1,2019-09-05T14:45:00Z,26.0257,-81.7332,1.2,24.4,11111222 
NERRS,ioos:station:NOAA.NERRS:rkblhwq:1,2019-09-05T15:45:00Z,26.0257,-81.7332,1.06,23.6,11111222 
NERRS,ioos:station:NOAA.NERRS:rkblhwq:1,2019-09-05T16:45:00Z,26.0257,-81.7332,0.95,22.0,11111222 
NERRS,ioos:station:NOAA.NERRS:rkblhwq:1,2019-09-05T17:45:00Z,26.0257,-81.7332,0.88,21.5,11111222 
NERRS,ioos:station:NOAA.NERRS:rkblhwq:1,2019-09-05T18:45:00Z,26.0257,-81.7332,0.92,20.4,11111222 
NERRS,ioos:station:NOAA.NERRS:rkblhwq:1,2019-09-05T19:45:00Z,26.0257,-81.7332,1.0,19.3,11111222 
NERRS,ioos:station:NOAA.NERRS:rkblhwq:1,2019-09-05T20:45:00Z,26.0257,-81.7332,1.1,22.1,11111222 
NERRS,ioos:station:NOAA.NERRS:rkblhwq:1,2019-09-05T21:45:00Z,26.0257,-81.7332,1.2,24.1,11111222 
NERRS,ioos:station:NOAA.NERRS:rkblhwq:1,2019-09-05T22:45:00Z,26.0257,-81.7332,1.3,24.8,11111222 
NERRS,ioos:station:NOAA.NERRS:rkblhwq:1,2019-09-05T23:45:00Z,26.0257,-81.7332,1.37,25.4,11111222 
NERRS,ioos:station:NOAA.NERRS:rkblhwq:1,2019-09-06T00:45:00Z,26.0257,-81.7332,1.42,25.2,11111222 
NERRS,ioos:station:NOAA.NERRS:rkblhwq:1,2019-09-06T01:45:00Z,26.0257,-81.7332,1.38,25.0,11111222 
NERRS,ioos:station:NOAA.NERRS:rkblhwq:1,2019-09-06T02:45:00Z,26.0257,-81.7332,1.32,23.3,11111222 
NERRS,ioos:station:NOAA.NERRS:rkblhwq:1,2019-09-06T03:45:00Z,26.0257,-81.7332,1.24,24.1,11111222 
NERRS,ioos:station:NOAA.NERRS:rkblhwq:1,2019-09-06T04:45:00Z,26.0257,-81.7332,1.18,24.2,11111222 
NERRS,ioos:station:NOAA.NERRS:rkblhwq:1,2019-09-06T06:45:00Z,26.0257,-81.7332,1.27,22.0,11111222 
NERRS,ioos:station:NOAA.NERRS:rkblhwq:1,2019-09-06T07:45:00Z,26.0257,-81.7332,1.36,23.0,11111222 
NERRS,ioos:station:NOAA.NERRS:rkblhwq:1,2019-09-06T08:45:00Z,26.0257,-81.7332,1.44,25.2,11111222 
NERRS,ioos:station:NOAA.NERRS:rkblhwq:1,2019-09-06T09:45:00Z,26.0257,-81.7332,1.53,24.9,11111222 
NERRS,ioos:station:NOAA.NERRS:rkblhwq:1,2019-09-06T10:45:00Z,26.0257,-81.7332,1.59,26.8,11111222 
NERRS,ioos:station:NOAA.NERRS:rkblhwq:1,2019-09-06T11:45:00Z,26.0257,-81.7332,1.61,27.2,11111222 
NERRS,ioos:station:NOAA.NERRS:rkblhwq:1,2019-09-06T12:45:00Z,26.0257,-81.7332,1.55,25.2,11111222 
NERRS,ioos:station:NOAA.NERRS:rkblhwq:1,2019-09-06T13:45:00Z,26.0257,-81.7332,1.46,24.1,11111222 
NERRS,ioos:station:NOAA.NERRS:rkblhwq:1,2019-09-06T14:45:00Z,26.0257,-81.7332,1.33,24.7,11111222 
NERRS,ioos:station:NOAA.NERRS:rkblhwq:1,2019-09-06T15:45:00Z,26.0257,-81.7332,1.2,24.4,11111222 
NERRS,ioos:station:NOAA.NERRS:rkblhwq:1,2019-09-06T16:45:00Z,26.0257,-81.7332,1.07,23.8,11111222 
NERRS,ioos:station:NOAA.NERRS:rkblhwq:1,2019-09-06T17:45:00Z,26.0257,-81.7332,0.96,22.0,11111222 
NERRS,ioos:station:NOAA.NERRS:rkblhwq:1,2019-09-06T18:45:00Z,26.0257,-81.7332,0.91,23.9,11111222 
NERRS,ioos:station:NOAA.NERRS:rkblhwq:1,2019-09-06T19:45:00Z,26.0257,-81.7332,0.94,23.1,11111222 
NERRS,ioos:station:NOAA.NERRS:rkblhwq:1,2019-09-06T20:45:00Z,26.0257,-81.7332,1.01,19.5,11111222 
NERRS,ioos:station:NOAA.NERRS:rkblhwq:1,2019-09-06T21:45:00Z,26.0257,-81.7332,1.11,20.6,11111222 
NERRS,ioos:station:NOAA.NERRS:rkblhwq:1,2019-09-06T22:45:00Z,26.0257,-81.7332,1.21,23.6,11111222 
NERRS,ioos:station:NOAA.NERRS:rkblhwq:1,2019-09-06T23:45:00Z,26.0257,-81.7332,1.32,25.3,11111222 
NERRS,ioos:station:NOAA.NERRS:rkblhwq:1,2019-09-07T00:45:00Z,26.0257,-81.7332,1.41,25.6,11111222 
NERRS,ioos:station:NOAA.NERRS:rkblhwq:1,2019-09-07T01:45:00Z,26.0257,-81.7332,1.48,26.6,11111222 
NERRS,ioos:station:NOAA.NERRS:rkblhwq:1,2019-09-07T02:45:00Z,26.0257,-81.7332,1.49,26.5,11111222 
NERRS,ioos:station:NOAA.NERRS:rkblhwq:1,2019-09-07T03:45:00Z,26.0257,-81.7332,1.44,25.8,11111222 
NERRS,ioos:station:NOAA.NERRS:rkblhwq:1,2019-09-07T04:45:00Z,26.0257,-81.7332,1.38,25.1,11111222 
NERRS,ioos:station:NOAA.NERRS:rkblhwq:1,2019-09-07T05:45:00Z,26.0257,-81.7332,1.35,24.1,11111222 
NERRS,ioos:station:NOAA.NERRS:rkblhwq:1,2019-09-07T06:45:00Z,26.0257,-81.7332,1.33,25.3,11111222 
NERRS,ioos:station:NOAA.NERRS:rkblhwq:1,2019-09-07T07:45:00Z,26.0257,-81.7332,1.34,26.1,11111222 
NERRS,ioos:station:NOAA.NERRS:rkblhwq:1,2019-09-07T08:45:00Z,26.0257,-81.7332,1.41,24.9,11111222 
NERRS,ioos:station:NOAA.NERRS:rkblhwq:1,2019-09-07T09:45:00Z,26.0257,-81.7332,1.51,22.9,11111222 
NERRS,ioos:station:NOAA.NERRS:rkblhwq:1,2019-09-07T10:45:00Z,26.0257,-81.7332,1.57,26.5,11111222 
NERRS,ioos:station:NOAA.NERRS:rkblhwq:1,2019-09-07T11:45:00Z,26.0257,-81.7332,1.61,27.6,11111222 
NERRS,ioos:station:NOAA.NERRS:rkblhwq:1,2019-09-07T12:45:00Z,26.0257,-81.7332,1.61,29.2,11111222 
NERRS,ioos:station:NOAA.NERRS:rkblhwq:1,2019-09-07T13:45:00Z,26.0257,-81.7332,1.59,26.6,11111222 
NERRS,ioos:station:NOAA.NERRS:rkblhwq:1,2019-09-07T14:45:00Z,26.0257,-81.7332,1.52,26.3,11111222 
NERRS,ioos:station:NOAA.NERRS:rkblhwq:1,2019-09-07T15:45:00Z,26.0257,-81.7332,1.41,24.6,11111222 
NERRS,ioos:station:NOAA.NERRS:rkblhwq:1,2019-09-07T16:45:00Z,26.0257,-81.7332,1.27,24.4,11111222 
NERRS,ioos:station:NOAA.NERRS:rkblhwq:1,2019-09-07T17:45:00Z,26.0257,-81.7332,1.14,24.1,11111222 
NERRS,ioos:station:NOAA.NERRS:rkblhwq:1,2019-09-07T18:45:00Z,26.0257,-81.7332,1.02,23.6,11111222 
NERRS,ioos:station:NOAA.NERRS:rkblhwq:1,2019-09-07T19:45:00Z,26.0257,-81.7332,0.92,24.2,11111222 
NERRS,ioos:station:NOAA.NERRS:rkblhwq:1,2019-09-07T20:45:00Z,26.0257,-81.7332,0.9,23.1,11111222 
NERRS,ioos:station:NOAA.NERRS:rkblhwq:1,2019-09-07T21:45:00Z,26.0257,-81.7332,0.98,20.7,11111222 
NERRS,ioos:station:NOAA.NERRS:rkblhwq:1,2019-09-07T22:45:00Z,26.0257,-81.7332,1.08,22.3,11111222 
NERRS,ioos:station:NOAA.NERRS:rkblhwq:1,2019-09-08T00:45:00Z,26.0257,-81.7332,1.28,24.8,11111222 
NERRS,ioos:station:NOAA.NERRS:rkblhwq:1,2019-09-08T01:45:00Z,26.0257,-81.7332,1.37,25.6,11111222 
NERRS,ioos:station:NOAA.NERRS:rkblhwq:1,2019-09-08T02:45:00Z,26.0257,-81.7332,1.46,26.0,11111222 
NERRS,ioos:station:NOAA.NERRS:rkblhwq:1,2019-09-08T03:45:00Z,26.0257,-81.7332,1.52,26.9,11111222 
NERRS,ioos:station:NOAA.NERRS:rkblhwq:1,2019-09-08T05:45:00Z,26.0257,-81.7332,1.44,25.9,11111222 
NERRS,ioos:station:NOAA.NERRS:rkblhwq:1,2019-09-08T06:45:00Z,26.0257,-81.7332,1.37,24.8,11111222 
NERRS,ioos:station:NOAA.NERRS:rkblhwq:1,2019-09-08T07:45:00Z,26.0257,-81.7332,1.32,24.3,11111222 
NERRS,ioos:station:NOAA.NERRS:rkblhwq:1,2019-09-08T08:45:00Z,26.0257,-81.7332,1.32,25.9,11111222 
NERRS,ioos:station:NOAA.NERRS:rkblhwq:1,2019-09-08T09:45:00Z,26.0257,-81.7332,1.39,26.8,11111222 
NERRS,ioos:station:NOAA.NERRS:rkblhwq:1,2019-09-08T10:45:00Z,26.0257,-81.7332,1.49,25.9,11111222 
NERRS,ioos:station:NOAA.NERRS:rkblhwq:1,2019-09-08T11:45:00Z,26.0257,-81.7332,1.55,26.6,11111222 
NERRS,ioos:station:NOAA.NERRS:rkblhwq:1,2019-09-08T12:45:00Z,26.0257,-81.7332,1.6,27.8,11111222 
NERRS,ioos:station:NOAA.NERRS:rkblhwq:1,2019-09-08T13:45:00Z,26.0257,-81.7332,1.65,28.0,11111222 
NERRS,ioos:station:NOAA.NERRS:rkblhwq:1,2019-09-08T14:45:00Z,26.0257,-81.7332,1.63,28.2,11111222 
NERRS,ioos:station:NOAA.NERRS:rkblhwq:1,2019-09-08T15:45:00Z,26.0257,-81.7332,1.56,27.4,11111222 
NERRS,ioos:station:NOAA.NERRS:rkblhwq:1,2019-09-08T16:45:00Z,26.0257,-81.7332,1.46,26.8,11111222 
NERRS,ioos:station:NOAA.NERRS:rkblhwq:1,2019-09-08T17:45:00Z,26.0257,-81.7332,1.34,26.3,11111222 
NERRS,ioos:station:NOAA.NERRS:rkblhwq:1,2019-09-08T18:45:00Z,26.0257,-81.7332,1.21,25.6,11111222 
NERRS,ioos:station:NOAA.NERRS:rkblhwq:1,2019-09-08T19:45:00Z,26.0257,-81.7332,1.08,25.1,11111222 
NERRS,ioos:station:NOAA.NERRS:rkblhwq:1,2019-09-08T20:45:00Z,26.0257,-81.7332,0.97,25.0,11111222 
NERRS,ioos:station:NOAA.NERRS:rkblhwq:1,2019-09-08T21:45:00Z,26.0257,-81.7332,0.92,24.6,11111222 
NERRS,ioos:station:NOAA.NERRS:rkblhwq:1,2019-09-08T22:45:00Z,26.0257,-81.7332,0.98,21.9,11111222 
NERRS,ioos:station:NOAA.NERRS:rkblhwq:1,2019-09-08T23:45:00Z,26.0257,-81.7332,1.11,22.9,11111222 
NERRS,ioos:station:NOAA.NERRS:rkblhwq:1,2019-09-09T01:45:00Z,26.0257,-81.7332,1.35,25.6,11111222 
NERRS,ioos:station:NOAA.NERRS:rkblhwq:1,2019-09-09T02:45:00Z,26.0257,-81.7332,1.46,26.2,11111222 
NERRS,ioos:station:NOAA.NERRS:rkblhwq:1,2019-09-09T03:45:00Z,26.0257,-81.7332,1.54,26.9,11111222 
NERRS,ioos:station:NOAA.NERRS:rkblhwq:1,2019-09-09T04:45:00Z,26.0257,-81.7332,1.57,27.2,11111222 
NERRS,ioos:station:NOAA.NERRS:rkblhwq:1,2019-09-09T05:45:00Z,26.0257,-81.7332,1.5,26.5,11111222 
NERRS,ioos:station:NOAA.NERRS:rkblhwq:1,2019-09-09T06:45:00Z,26.0257,-81.7332,1.42,25.6,11111222 
NERRS,ioos:station:NOAA.NERRS:rkblhwq:1,2019-09-09T07:45:00Z,26.0257,-81.7332,1.34,25.6,11111222 
NERRS,ioos:station:NOAA.NERRS:rkblhwq:1,2019-09-09T08:45:00Z,26.0257,-81.7332,1.26,25.5,11111222 
NERRS,ioos:station:NOAA.NERRS:rkblhwq:1,2019-09-09T09:45:00Z,26.0257,-81.7332,1.24,25.7,11111222 
NERRS,ioos:station:NOAA.NERRS:rkblhwq:1,2019-09-09T10:45:00Z,26.0257,-81.7332,1.32,26.6,11111222 
NERRS,ioos:station:NOAA.NERRS:rkblhwq:1,2019-09-09T11:45:00Z,26.0257,-81.7332,1.42,25.2,11111222 
NERRS,ioos:station:NOAA.NERRS:rkblhwq:1,2019-09-09T12:45:00Z,26.0257,-81.7332,1.51,26.1,11111222 
NERRS,ioos:station:NOAA.NERRS:rkblhwq:1,2019-09-09T13:45:00Z,26.0257,-81.7332,1.58,27.0,11111222 
NERRS,ioos:station:NOAA.NERRS:rkblhwq:1,2019-09-09T14:45:00Z,26.0257,-81.7332,1.65,27.6,11111222 
NERRS,ioos:station:NOAA.NERRS:rkblhwq:1,2019-09-09T15:45:00Z,26.0257,-81.7332,1.66,27.7,11111222 
NERRS,ioos:station:NOAA.NERRS:rkblhwq:1,2019-09-09T16:45:00Z,26.0257,-81.7332,1.58,26.9,11111222 
NERRS,ioos:station:NOAA.NERRS:rkblhwq:1,2019-09-09T17:45:00Z,26.0257,-81.7332,1.46,26.4,11111222 
NERRS,ioos:station:NOAA.NERRS:rkblhwq:1,2019-09-09T20:45:00Z,26.0257,-81.7332,1.08,26.2,11111222 
NERRS,ioos:station:NOAA.NERRS:rkblhwq:1,2019-09-09T22:45:00Z,26.0257,-81.7332,0.94,20.1,11111222 
NERRS,ioos:station:NOAA.NERRS:rkblhwq:1,2019-09-09T23:45:00Z,26.0257,-81.7332,1.0,22.2,11111222 
NERRS,ioos:station:NOAA.NERRS:rkblhwq:1,2019-09-10T00:45:00Z,26.0257,-81.7332,1.13,22.7,11111222 
NERRS,ioos:station:NOAA.NERRS:rkblhwq:1,2019-09-10T01:45:00Z,26.0257,-81.7332,1.25,24.2,11111222 
NERRS,ioos:station:NOAA.NERRS:rkblhwq:1,2019-09-10T02:45:00Z,26.0257,-81.7332,1.39,25.1,11111222 
NERRS,ioos:station:NOAA.NERRS:rkblhwq:1,2019-09-10T03:45:00Z,26.0257,-81.7332,1.5,25.7,11111222 
NERRS,ioos:station:NOAA.NERRS:rkblhwq:1,2019-09-10T04:45:00Z,26.0257,-81.7332,1.57,26.2,11111222 
NERRS,ioos:station:NOAA.NERRS:rkblhwq:1,2019-09-10T05:45:00Z,26.0257,-81.7332,1.54,25.4,11111222 
NERRS,ioos:station:NOAA.NERRS:rkblhwq:1,2019-09-10T06:45:00Z,26.0257,-81.7332,1.45,25.6,11111222 
NERRS,ioos:station:NOAA.NERRS:rkblhwq:1,2019-09-10T07:45:00Z,26.0257,-81.7332,1.35,25.4,11111222 
NERRS,ioos:station:NOAA.NERRS:rkblhwq:1,2019-09-10T08:45:00Z,26.0257,-81.7332,1.29,24.0,11111222 
NERRS,ioos:station:NOAA.NERRS:rkblhwq:1,2019-09-10T09:45:00Z,26.0257,-81.7332,1.26,23.2,11111222 
NERRS,ioos:station:NOAA.NERRS:rkblhwq:1,2019-09-10T10:45:00Z,26.0257,-81.7332,1.25,24.8,11111222 
NERRS,ioos:station:NOAA.NERRS:rkblhwq:1,2019-09-10T11:45:00Z,26.0257,-81.7332,1.31,26.0,11111222 
NERRS,ioos:station:NOAA.NERRS:rkblhwq:1,2019-09-10T12:45:00Z,26.0257,-81.7332,1.44,24.9,11111222 
NERRS,ioos:station:NOAA.NERRS:rkblhwq:1,2019-09-10T13:45:00Z,26.0257,-81.7332,1.54,25.3,11111222 
NERRS,ioos:station:NOAA.NERRS:rkblhwq:1,2019-09-10T14:45:00Z,26.0257,-81.7332,1.61,26.7,11111222 
NERRS,ioos:station:NOAA.NERRS:rkblhwq:1,2019-09-10T15:45:00Z,26.0257,-81.7332,1.65,27.0,11111222 
NERRS,ioos:station:NOAA.NERRS:rkblhwq:1,2019-09-10T16:45:00Z,26.0257,-81.7332,1.65,27.4,11111222 
NERRS,ioos:station:NOAA.NERRS:rkblhwq:1,2019-09-10T17:45:00Z,26.0257,-81.7332,1.57,22.0,11111222 
NERRS,ioos:station:NOAA.NERRS:rkblhwq:1,2019-09-10T18:45:00Z,26.0257,-81.7332,1.43,20.1,11111222 
NERRS,ioos:station:NOAA.NERRS:rkblhwq:1,2019-09-10T19:45:00Z,26.0257,-81.7332,1.28,21.4,11111222 
NERRS,ioos:station:NOAA.NERRS:rkblhwq:1,2019-09-10T20:45:00Z,26.0257,-81.7332,1.13,21.1,11111222 
NERRS,ioos:station:NOAA.NERRS:rkblhwq:1,2019-09-10T21:45:00Z,26.0257,-81.7332,1.0,21.7,11111222 
NERRS,ioos:station:NOAA.NERRS:rkblhwq:1,2019-09-10T22:45:00Z,26.0257,-81.7332,0.9,21.7,11111222 
NERRS,ioos:station:NOAA.NERRS:rkblhwq:1,2019-09-11T00:45:00Z,26.0257,-81.7332,0.94,24.3,11111222 
NERRS,ioos:station:NOAA.NERRS:rkblhwq:1,2019-09-11T01:45:00Z,26.0257,-81.7332,1.06,23.2,11111222 
NERRS,ioos:station:NOAA.NERRS:rkblhwq:1,2019-09-11T02:45:00Z,26.0257,-81.7332,1.21,24.0,11111222 
NERRS,ioos:station:NOAA.NERRS:rkblhwq:1,2019-09-11T03:45:00Z,26.0257,-81.7332,1.36,25.0,11111222 
NERRS,ioos:station:NOAA.NERRS:rkblhwq:1,2019-09-11T04:45:00Z,26.0257,-81.7332,1.45,25.6,11111222 
NERRS,ioos:station:NOAA.NERRS:rkblhwq:1,2019-09-11T05:45:00Z,26.0257,-81.7332,1.47,25.6,11111222 
NERRS,ioos:station:NOAA.NERRS:rkblhwq:1,2019-09-11T06:45:00Z,26.0257,-81.7332,1.39,23.7,11111222 
NERRS,ioos:station:NOAA.NERRS:rkblhwq:1,2019-09-11T07:45:00Z,26.0257,-81.7332,1.27,24.2,11111222 
NERRS,ioos:station:NOAA.NERRS:rkblhwq:1,2019-09-11T08:45:00Z,26.0257,-81.7332,1.16,23.0,11111222 
NERRS,ioos:station:NOAA.NERRS:rkblhwq:1,2019-09-11T09:45:00Z,26.0257,-81.7332,1.08,22.3,11111222 
NERRS,ioos:station:NOAA.NERRS:rkblhwq:1,2019-09-11T10:45:00Z,26.0257,-81.7332,1.08,21.6,11111222 
NERRS,ioos:station:NOAA.NERRS:rkblhwq:1,2019-09-11T11:45:00Z,26.0257,-81.7332,1.16,24.8,11111222 
NERRS,ioos:station:NOAA.NERRS:rkblhwq:1,2019-09-11T12:45:00Z,26.0257,-81.7332,1.28,23.9,11111222 
NERRS,ioos:station:NOAA.NERRS:rkblhwq:1,2019-09-11T13:45:00Z,26.0257,-81.7332,1.39,25.0,11111222 
NERRS,ioos:station:NOAA.NERRS:rkblhwq:1,2019-09-11T14:45:00Z,26.0257,-81.7332,1.5,26.0,11111222 
NERRS,ioos:station:NOAA.NERRS:rkblhwq:1,2019-09-11T15:45:00Z,26.0257,-81.7332,1.59,27.1,11111222 
NERRS,ioos:station:NOAA.NERRS:rkblhwq:1,2019-09-11T16:45:00Z,26.0257,-81.7332,1.63,27.2,11111222 
NERRS,ioos:station:NOAA.NERRS:rkblhwq:1,2019-09-11T17:45:00Z,26.0257,-81.7332,1.55,24.4,11111222 
NERRS,ioos:station:NOAA.NERRS:rkblhwq:1,2019-09-11T19:45:00Z,26.0257,-81.7332,1.28,23.1,11111222 
NERRS,ioos:station:NOAA.NERRS:rkblhwq:1,2019-09-11T20:45:00Z,26.0257,-81.7332,1.14,22.5,11111222 
NERRS,ioos:station:NOAA.NERRS:rkblhwq:1,2019-09-11T21:45:00Z,26.0257,-81.7332,1.0,22.5,11111222 
NERRS,ioos:station:NOAA.NERRS:rkblhwq:1,2019-09-11T22:45:00Z,26.0257,-81.7332,0.88,22.2,11111222 
NERRS,ioos:station:NOAA.NERRS:rkblhwq:1,2019-09-11T23:45:00Z,26.0257,-81.7332,0.79,22.3,11111222 
NERRS,ioos:station:NOAA.NERRS:rkblhwq:1,2019-09-12T00:45:00Z,26.0257,-81.7332,0.81,22.6,11111222 
NERRS,ioos:station:NOAA.NERRS:rkblhwq:1,2019-09-12T01:45:00Z,26.0257,-81.7332,0.94,23.6,11111222 
NERRS,ioos:station:NOAA.NERRS:rkblhwq:1,2019-09-12T02:45:00Z,26.0257,-81.7332,1.07,24.8,11111222 
NERRS,ioos:station:NOAA.NERRS:rkblhwq:1,2019-09-12T03:45:00Z,26.0257,-81.7332,1.23,25.6,11111222 
NERRS,ioos:station:NOAA.NERRS:rkblhwq:1,2019-09-12T04:45:00Z,26.0257,-81.7332,1.37,26.1,11111222 
NERRS,ioos:station:NOAA.NERRS:rkblhwq:1,2019-09-12T05:45:00Z,26.0257,-81.7332,1.45,26.6,11111222 
NERRS,ioos:station:NOAA.NERRS:rkblhwq:1,2019-09-12T06:45:00Z,26.0257,-81.7332,1.44,25.9,11111222 
NERRS,ioos:station:NOAA.NERRS:rkblhwq:1,2019-09-12T07:45:00Z,26.0257,-81.7332,1.32,25.2,11111222 
NERRS,ioos:station:NOAA.NERRS:rkblhwq:1,2019-09-12T08:45:00Z,26.0257,-81.7332,1.21,25.4,11111222 
NERRS,ioos:station:NOAA.NERRS:rkblhwq:1,2019-09-12T09:45:00Z,26.0257,-81.7332,1.12,24.3,11111222 
NERRS,ioos:station:NOAA.NERRS:rkblhwq:1,2019-09-12T10:45:00Z,26.0257,-81.7332,1.06,23.5,11111222 
NERRS,ioos:station:NOAA.NERRS:rkblhwq:1,2019-09-12T11:45:00Z,26.0257,-81.7332,1.05,23.2,11111222 
NERRS,ioos:station:NOAA.NERRS:rkblhwq:1,2019-09-12T12:45:00Z,26.0257,-81.7332,1.13,25.9,11111222 
NERRS,ioos:station:NOAA.NERRS:rkblhwq:1,2019-09-12T13:45:00Z,26.0257,-81.7332,1.26,24.9,11111222 
NERRS,ioos:station:NOAA.NERRS:rkblhwq:1,2019-09-12T14:45:00Z,26.0257,-81.7332,1.4,26.1,11111222 
NERRS,ioos:station:NOAA.NERRS:rkblhwq:1,2019-09-12T15:45:00Z,26.0257,-81.7332,1.5,27.2,11111222 
NERRS,ioos:station:NOAA.NERRS:rkblhwq:1,2019-09-13T19:45:00Z,26.0257,-81.7332,1.42,25.7,11111222 
NERRS,ioos:station:NOAA.NERRS:rkblhwq:1,2019-09-13T20:45:00Z,26.0257,-81.7332,1.29,24.8,11111222 
NERRS,ioos:station:NOAA.NERRS:rkblhwq:1,2019-09-13T21:45:00Z,26.0257,-81.7332,1.15,24.3,11111222 
NERRS,ioos:station:NOAA.NERRS:rkblhwq:1,2019-09-13T22:45:00Z,26.0257,-81.7332,1.01,24.3,11111222 
NERRS,ioos:station:NOAA.NERRS:rkblhwq:1,2019-09-13T23:45:00Z,26.0257,-81.7332,0.9,23.9,11111222 
NERRS,ioos:station:NOAA.NERRS:rkblhwq:1,2019-09-14T00:45:00Z,26.0257,-81.7332,0.81,23.8,11111222 
NERRS,ioos:station:NOAA.NERRS:rkblhwq:1,2019-09-14T01:45:00Z,26.0257,-81.7332,0.81,22.5,11111222 
NERRS,ioos:station:NOAA.NERRS:rkblhwq:1,2019-09-14T02:45:00Z,26.0257,-81.7332,0.92,24.7,11111222 
NERRS,ioos:station:NOAA.NERRS:rkblhwq:1,2019-09-14T03:45:00Z,26.0257,-81.7332,1.08,25.9,11111222 
NERRS,ioos:station:NOAA.NERRS:rkblhwq:1,2019-09-14T04:45:00Z,26.0257,-81.7332,1.24,26.6,11111222 
NERRS,ioos:station:NOAA.NERRS:rkblhwq:1,2019-09-14T05:45:00Z,26.0257,-81.7332,1.37,27.3,11111222 
NERRS,ioos:station:NOAA.NERRS:rkblhwq:1,2019-09-14T06:45:00Z,26.0257,-81.7332,1.46,27.7,11111222 
NERRS,ioos:station:NOAA.NERRS:rkblhwq:1,2019-09-14T07:45:00Z,26.0257,-81.7332,1.46,27.8,11111222 
NERRS,ioos:station:NOAA.NERRS:rkblhwq:1,2019-09-14T08:45:00Z,26.0257,-81.7332,1.36,26.6,11111222 
NERRS,ioos:station:NOAA.NERRS:rkblhwq:1,2019-09-14T09:45:00Z,26.0257,-81.7332,1.24,25.6,11111222 
NERRS,ioos:station:NOAA.NERRS:rkblhwq:1,2019-09-14T10:45:00Z,26.0257,-81.7332,1.13,24.7,11111222 
NERRS,ioos:station:NOAA.NERRS:rkblhwq:1,2019-09-14T11:45:00Z,26.0257,-81.7332,1.05,24.5,11111222 
NERRS,ioos:station:NOAA.NERRS:rkblhwq:1,2019-09-14T12:45:00Z,26.0257,-81.7332,1.03,23.2,11111222 
NERRS,ioos:station:NOAA.NERRS:rkblhwq:1,2019-09-14T13:45:00Z,26.0257,-81.7332,1.08,26.2,11111222 
NERRS,ioos:station:NOAA.NERRS:rkblhwq:1,2019-09-14T14:45:00Z,26.0257,-81.7332,1.2,25.6,11111222 
NERRS,ioos:station:NOAA.NERRS:rkblhwq:1,2019-09-14T15:45:00Z,26.0257,-81.7332,1.32,26.4,11111222 
NERRS,ioos:station:NOAA.NERRS:rkblhwq:1,2019-09-14T17:45:00Z,26.0257,-81.7332,1.55,28.7,11111222 
NERRS,ioos:station:NOAA.NERRS:rkblhwq:1,2019-09-14T18:45:00Z,26.0257,-81.7332,1.6,29.2,11111222 
NERRS,ioos:station:NOAA.NERRS:rkblhwq:1,2019-09-14T19:45:00Z,26.0257,-81.7332,1.55,27.2,11111222 
NERRS,ioos:station:NOAA.NERRS:rkblhwq:1,2019-09-14T21:45:00Z,26.0257,-81.7332,1.35,24.5,11111222 
NERRS,ioos:station:NOAA.NERRS:rkblhwq:1,2019-09-14T22:45:00Z,26.0257,-81.7332,1.21,27.9,11111222 
NERRS,ioos:station:NOAA.NERRS:rkblhwq:1,2019-09-14T23:45:00Z,26.0257,-81.7332,1.09,24.3,11111222 
NERRS,ioos:station:NOAA.NERRS:rkblhwq:1,2019-09-15T00:45:00Z,26.0257,-81.7332,0.99,26.4,11111222 
NERRS,ioos:station:NOAA.NERRS:rkblhwq:1,2019-09-15T01:45:00Z,26.0257,-81.7332,0.92,25.3,11111222 
NERRS,ioos:station:NOAA.NERRS:rkblhwq:1,2019-09-15T02:45:00Z,26.0257,-81.7332,1.0,25.1,11111222 
NERRS,ioos:station:NOAA.NERRS:rkblhwq:1,2019-09-15T03:45:00Z,26.0257,-81.7332,1.15,25.4,11111222 
NERRS,ioos:station:NOAA.NERRS:rkblhwq:1,2019-09-15T04:45:00Z,26.0257,-81.7332,1.29,26.5,11111222 
NERRS,ioos:station:NOAA.NERRS:rkblhwq:1,2019-09-15T05:45:00Z,26.0257,-81.7332,1.42,27.0,11111222 
NERRS,ioos:station:NOAA.NERRS:rkblhwq:1,2019-09-15T06:45:00Z,26.0257,-81.7332,1.54,27.6,11111222 
NERRS,ioos:station:NOAA.NERRS:rkblhwq:1,2019-09-15T07:45:00Z,26.0257,-81.7332,1.57,27.6,11111222 
NERRS,ioos:station:NOAA.NERRS:rkblhwq:1,2019-09-15T08:45:00Z,26.0257,-81.7332,1.5,27.3,11111222 
NERRS,ioos:station:NOAA.NERRS:rkblhwq:1,2019-09-15T09:45:00Z,26.0257,-81.7332,1.37,27.1,11111222 
NERRS,ioos:station:NOAA.NERRS:rkblhwq:1,2019-09-15T10:45:00Z,26.0257,-81.7332,1.24,27.1,11111222 
NERRS,ioos:station:NOAA.NERRS:rkblhwq:1,2019-09-15T11:45:00Z,26.0257,-81.7332,1.1,26.6,11111222 
NERRS,ioos:station:NOAA.NERRS:rkblhwq:1,2019-09-15T12:45:00Z,26.0257,-81.7332,1.0,26.8,11111222 
NERRS,ioos:station:NOAA.NERRS:rkblhwq:1,2019-09-15T13:45:00Z,26.0257,-81.7332,0.99,25.3,11111222 
NERRS,ioos:station:NOAA.NERRS:rkblhwq:1,2019-09-15T14:45:00Z,26.0257,-81.7332,1.1,26.4,11111222 
NERRS,ioos:station:NOAA.NERRS:rkblhwq:1,2019-09-15T15:45:00Z,26.0257,-81.7332,1.26,25.6,11111222 
NERRS,ioos:station:NOAA.NERRS:rkblhwq:1,2019-09-15T17:45:00Z,26.0257,-81.7332,1.55,27.2,11111222 